Powrót do katalogu

DELTA 1 DEB

AktywnyLEO
NORAD 42589·DEBRIS·🇺🇸 United States

Wystrzelony Nov 6, 1973 z Vandenberg Space Force Base

Loading…

Następne Przeloty (najbliższe 24 godziny)

TLE

ŚwieżeSource: Space-Track

Epoka: Sep 13, 2026, 09:03 UTC

1 42589U 73086JD  26256.37738690  .00000252  00000-0  73003-3 0  9991
2 42589 102.5827  87.3676 0316965  80.7965 282.8839 13.06657918611393

Śledź DELTA 1 DEB w czasie rzeczywistym z AllMySat

Download on the App Store